User: anonymous   Login
Location: Mount Tamalpais State Park
(37.9108°N, 122.6128°W)
Time: 05:02:43
(UTC-07:00)
Language:

Cosmos 1814 Rocket - Orbit

View from above orbital plane
View from above orbital plane
View from above satellite
View from above satellite

Ground track
Ground track

The orbit data is extracted from the following two-line orbital elements,

1 17304U 87006B   17294.95212844 +.00000043 +00000-0 +22963-4 0  9997
2 17304 074.0596 217.6713 0029205 022.5104 337.7324 14.37614441611290
Epoch (UTC): 21 October 2017 22:51:03
Eccentricity: 0.0029205
inclination: 74.0596°
perigee height: 745 km
apogee height: 787 km
right ascension of ascending node: 217.6713°
argument of perigee: 22.5104°
revolutions per day: 14.37614441
mean anomaly at epoch: 337.7324°
orbit number at epoch: 61129

The dashed part of the orbit path shows where the satellite is in the earth's shadow,  

DLR